METEOR 1-19

Satellite information

Favourite Embed

Satellite Type and Status

PAYLOADIN ORBIT

Key statistics

Satellite METEOR 1-19 at a glance.

Uptime

18674

Days in orbit

Revolutions

≈ 14.1

Per day

Orbit

LEO

Low Earth Orbit

Inclination

81.2

Latest

Satellite identification and parameters

Extended collection of information and parameters for METEOR 1-19.

Object identification

Identified? True

Debris? False

Object name: METEOR 1-19

International designator: 1974-083A

Object number (NORAD): 7490

Object ID (CCSDS): 7490

Country: COMMONWEALTH OF INDEPENDENT STATES (CIS)

Current information (Y/N): Y

RCS size: LARGE

Orbital parameters

Period: 102.089 minutes

Inclination: 81.188 deg

SMA: 7235.687 km

Apoapsis: 879.06 km

Periapsis: 836.043 km

RAAN: 321.0808 deg

Eccentricy: 0.00297258

Argument of periapsis: 250.6739 deg

Mean anomaly: 109.1217 deg

Mean motion: 14.10532667 rev/day

Mean motion (dot): 0.00000121 rev/day2

B* drag term: 0.000060863589 1/REarth

Two-line elements (TLE)

Creation date: Dec. 12, 2025, 10:14 a.m.

Reference frame: TEME

Reference center: EARTH

Epoch: Dec. 12, 2025, 6:53 a.m. UTC

TLE line 0: 0 METEOR 1-19

TLE line 1: 1 07490U 74083A 25346.28692115 .00000121 00000-0 60864-4 0 9998

TLE line 2: 2 07490 81.1880 321.0808 0029726 250.6739 109.1217 14.10532667628538

Live tracking on map

Real-time ground track for satellite METEOR 1-19.

In-orbit conjunctions

A list of the most updated potential collisions computed for object METEOR 1-19.

Target Orbit TCA Probability of collision Miss distance Type
FENGYUN 1C DEB SSO 2025-09-15 10:20:52 0.0001123542 764.0 (m) DEBRIS
FENGYUN 1C DEB SSO 2025-03-27 23:57:40 0.0002058615 982.0 (m) DEBRIS
CZ-4 DEB SSO 2025-02-22 05:19:41 0.0007690474 908.0 (m) DEBRIS
FENGYUN 1C DEB SSO 2025-02-16 12:27:56 0.000249832 186.0 (m) DEBRIS
COSMOS 970 DEB LEO 2025-02-10 17:00:47 0.0001244622 459.0 (m) DEBRIS

Associated space launch

The Meteor-1 series was the first series of Soviet meteorological satellites.

METEOR 1-19 was lifted into orbit during the mission ‘Vostok 8A92M | Meteor-1 19 (33L)’, on board a Vostok 8A92M space rocket.

The launch took place on Oct. 28, 1974, 10:17 a.m. from 43/4 (43R).

For more information about the launch, click the button.

Launch to space Vostok 8A92M | Meteor-1 19 (33L)
Vostok 8A92M | Meteor-1 19 (33L)

Agency: N/A

Status: Launch Successful

Launch date: Oct. 28, 1974, 10:17 a.m. UTC

Rocket: Vostok 8A92M

Launch pad: 43/4 (43R)

Location: Plesetsk Cosmodrome, Russian Federation

...

Latest news about this satellite

There are no fresh news available about this satellite. Check back as we update our databases every day.


Newsletter sign-up

Weekly statistics, charts and insights to help you stay on top of the space industry.